ELECTRON KICK STAGE R/B (47254 NORAD) Tracking and Keplerian Element Data
This shows tracking and keplerian element data for the satellite.
Feedback or suggestion? Click here.
Element | Value |
Catalog | 47254 |
Name | ELECTRON KICK STAGE R/B |
Epoch Orbit | 444 |
Epoch Day | 13.72767439 |
Epoch Year | 2021 |
RAAN | 270.7198 |
Inclination | 97.3755 |
Eccentricity | 0.0014564 |
Argument of Perigee | 178.4006 |
Mean Anonmoly | 181.7279 |
Mean Motion | 15.21027304 |
Decay Rate | 1.34E-05 |
L1 | 1 47254U 20098B 21013.72767439 .00001340 00000-0 63351-4 0 9993 |
L2 | 2 47254 97.3755 270.7198 0014564 178.4006 181.7279 15.21027304 4442 |
Live tracking and technical data element details for ELECTRON KICK STAGE R/B (NORAD 47254). ELECTRON KICK STAGE R/B can be tracked NOW for your location showing map with azimuth and elevation plus other details from your city location.
Track the satellite on the map from your city or location and see movement details for azimuth, elevation, latitude, longitude, range, height, and movement on the map or in text.
IsCatalogInMostPopularTable: catalog: 47254, numindb: 19
Update: records affected: 1
GetName: 47254 ELECTRON KICK STAGE R/B
Hit Count: updated at: Tue, 02 Mar 2021 14:19:00 GMT